Location: Gourel Dara
(15.1934°N, 12.8462°W)
Time: 11:42:27
(UTC+00:00)

Daily predictions for brighter satellites

Satellite Brightness Start Highest point End
(mag) Time Altitude Azimuth Time Altitude Azimuth Time Altitude Azimuth
Palapa 6 Rocket 3.9 18:30:51 10° WNW 18:36:08 77° SSW 18:42:45 10° ESE
H-2A ROCKET BODY 4.3 18:35:33 10° SW 18:41:54 56° SE 19:11:52 13° ENE
Cosmos 2297 3.7 18:39:41 10° N 18:45:22 69° ENE 18:51:02 10° SSE
USA 238 DEB 4.5 18:43:23 10° SW 18:49:36 49° WNW 18:55:57 10° N
USA 238 4.5 18:43:27 10° SW 18:49:42 50° WNW 18:56:04 10° N
Cosmos 158 Rocket 4.3 18:46:09 10° SSW 18:51:12 69° WNW 18:56:09 10° N
CZ-2C R/B 4.3 18:50:21 10° ESE 18:53:45 18° ENE 18:57:04 10° NNE
GPS 2-12 Rocket1 3.3 18:49:00 10° WSW 18:53:48 71° SSE 18:58:14 12° E
Cosmos 1470 Rocket 3.4 18:54:26 10° N 18:58:44 79° E 19:03:04 10° S
SL-24 DEB 4.2 18:54:25 10° N 18:59:05 81° E 19:03:43 10° S
Helios 1A Rocket 4.5 18:58:31 10° ESE 19:00:49 15° ENE 19:02:08 13° NE
Cosmos 2228 Rocket 3.2 18:57:25 10° S 19:01:59 84° W 19:06:31 10° N
MOS 1 Rocket 3.6 18:58:09 10° NNE 19:03:25 57° E 19:08:26 10° S
Cosmos 1812 3.0 18:59:49 10° S 19:03:38 71° W 19:07:26 10° N
FUSE 3.9 18:58:59 10° WNW 19:04:21 78° NNE 19:09:44 10° ESE
Nadezhda 3 Rocket 4.1 18:59:00 10° S 19:05:20 89° W 19:11:43 10° N
Cosmos 1707 Rocket 4.4 19:02:02 10° SSE 19:05:54 30° E 19:09:40 10° NNE
CZ-3B R/B 3.4 19:00:56 10° WSW 19:05:56 81° NNW 19:18:04 16° ENE
Cosmos 1939 Rocket 2.8 19:02:37 10° SSE 19:06:21 52° ENE 19:10:07 10° N
Cosmos 1689 Rocket 2.9 19:03:51 10° N 19:06:42 50° WNW 19:09:33 10° SSW
H-2A R/B 3.5 19:04:58 10° ESE 19:08:07 16° ENE 19:08:38 16° ENE
CZ-4 R/B 2.5 19:05:54 10° SE 19:08:48 20° ENE 19:11:05 13° NE
Mugunghwa Rocket 4.0 19:02:31 10° WNW 19:08:49 89° SSW 19:15:27 10° ESE
COSMO-SKYMED 1 4.0 19:07:15 10° N 19:11:16 38° WNW 19:15:17 10° SW
Cosmos 1238 Rocket 4.2 19:08:28 10° NNE 19:12:58 35° E 19:18:12 10° SSE
IRS-1C Rocket 4.2 19:12:11 10° SSE 19:17:18 53° ENE 19:22:25 10° N
Lacrosse 4 Rocket 2.8 19:14:21 10° SW 19:18:04 36° WNW 19:21:48 10° N
SWIFT 2.4 19:15:35 10° W 19:19:44 67° NNW 19:21:55 26° ENE
ATLAS 3B R/B 3.1 19:15:11 10° S 19:21:12 38° ESE 19:24:48 21° ENE
CZ-2D R/B 3.2 19:18:54 10° SSE 19:22:37 58° ENE 19:26:22 10° N
Cosmos 1933 Rocket 4.0 19:24:26 10° NNW 19:28:49 64° W 19:33:10 10° S
CREW DRAGON DEMO-1 DEB 2.9 19:27:05 10° NW 19:30:01 69° SW 19:32:21 15° SSE
Okean O Rocket 4.3 19:28:00 10° SSW 19:31:19 21° W 19:34:39 10° NW
BREEZE-M DEB (TANK) 3.9 19:22:27 10° SSW 19:31:50 44° SE 19:33:18 32° E
Cosmos 1821 Rocket 3.9 19:25:36 10° N 19:31:54 72° E 19:38:15 10° S
Meteor 1-11 Rocket 4.3 19:27:25 10° NNE 19:32:44 35° E 19:38:06 10° SSE
Okean-O 2.8 19:28:49 10° SSE 19:33:04 47° ENE 19:37:18 10° N
H-10 deb 4.0 19:24:36 10° W 19:38:37 39° SSW 19:41:30 17° SE
GPS 2-15 Rocket1 4.1 19:34:46 10° W 19:39:28 44° SSW 19:42:47 18° SE
GPS 2-14 Rocket1 2.7 19:36:40 10° W 19:40:23 59° NNW 19:40:56 52° NNE
Cosmos 1437 Rocket 4.3 19:42:16 10° SSW 19:46:00 37° W 19:49:42 10° NNW
CENTAUR R/B 4.4 19:43:52 10° WSW 19:47:44 20° WNW 19:51:58 10° NNW
Cosmos 2369 Rocket 2.1 19:44:17 10° NNW 19:49:55 87° ENE 19:55:31 10° SSE
Cosmos 1943 Rocket 3.2 19:45:27 10° NNW 19:50:47 47° WSW 19:56:09 10° S
Cosmos 1862 Rocket 3.7 19:47:56 10° S 19:51:50 52° ESE 19:51:50 52° ESE
Meteor 1-5 Rocket 4.3 19:46:47 10° N 19:52:30 76° W 19:58:01 10° S
Centaur AC-146 4.0 20:00:00 10° SSW 20:00:48 12° S 20:00:48 12° S
Hubble Space Telescope 2.9 20:00:18 10° NW 20:02:24 16° NNW 20:02:24 16° NNW
CZ-2C R/B 2.4 20:02:18 58° NNE 20:03:17 78° ESE 20:08:30 10° S
Cosmos 1869 Rocket 3.8 19:59:23 11° N 20:03:36 69° W 20:07:58 10° S
Cosmos 1727 Rocket 4.0 19:58:04 10° SSE 20:04:03 55° E 20:04:12 54° E
Ariane H10 3.6 20:03:49 10° SW 20:06:54 34° SSE 20:08:23 30° SE
ATLAS CENTAUR R/B 2.1 20:05:54 10° SSW 20:08:52 46° SSW 20:08:52 46° SSW
YAOGAN 1 3.2 20:09:37 10° S 20:13:50 53° W 20:16:04 26° NW
H-2A R/B (2) 3.0 19:59:45 10° WNW 20:16:10 48° N 20:16:30 48° NNE
DMSP B5D2-2 4.2 20:17:09 64° SSE 20:17:09 64° SSE 20:21:37 10° S
Cosmos 2344 3.5 20:17:54 10° SSW 20:26:41 85° WNW 20:28:40 55° NNE
Centaur AC-72 3.3 20:13:10 10° WNW 20:30:49 76° SSW 20:32:31 55° SE
CZ-4 R/B 4.4 20:41:38 10° SW 20:43:38 14° W 20:45:40 10° WNW
ATLAS CENTAUR R/B 3.6 20:37:01 10° NW 20:44:03 46° WNW 20:44:03 46° WNW
H-2A R/B 3.5 20:42:17 10° SSW 20:47:11 36° W 20:49:15 27° WNW
USA 281 3.5 20:43:54 10° S 20:50:21 62° WSW 20:56:50 10° NNW
ATLAS 3B R/B 4.4 21:06:41 10° WSW 21:11:43 23° WNW 21:12:08 23° NW
